YT1XN-8 Weather Reports


Display with metric or nautical units.
time (UTC)temp
F
wind
direction
speed
MPH
gust
MPH
rain 1hr
in
rain 24hr
in
rain mn
in
humidity
%
barometer
mb
20260507195042 62 5 0.0 0.0 0.00 0.00 0.00 77 1015.6
20260507194043 62 5 0.0 1.0 0.00 0.00 0.00 77 1015.5
20260507193942 63 5 0.0 1.0 0.00 0.00 0.00 77 1015.5
20260507193044 63 5 0.0 1.0 0.00 0.00 0.00 76 1015.4
20260507192842 63 5 0.0 1.0 0.00 0.00 0.00 76 1015.4
20260507192043 63 5 0.0 3.0 0.00 0.00 0.00 76 1015.4
20260507191742 63 5 0.0 3.0 0.00 0.00 0.00 76 1015.3
20260507191043 63 5 1.0 2.0 0.00 0.00 0.00 76 1015.3
20260507190642 63 5 0.0 3.0 0.00 0.00 0.00 76 1015.4
20260507190043 63 5 1.0 3.0 0.00 0.00 0.00 76 1015.3
20260507185542 63 10 1.0 3.0 0.00 0.00 0.00 76 1015.3
20260507185043 63 5 1.0 3.0 0.00 0.00 0.00 75 1015.3
20260507184442 63 16 2.0 2.0 0.00 0.00 0.00 75 1015.2
20260507184043 64 274 0.0 0.0 0.00 0.00 0.00 75 1015.2
20260507183342 64 274 0.0 0.0 0.00 0.00 0.00 75 1015.3
20260507183043 64 274 0.0 0.0 0.00 0.00 0.00 75 1015.2
20260507182242 64 274 0.0 0.0 0.00 0.00 0.00 75 1015.1
20260507182043 64 274 0.0 0.0 0.00 0.00 0.00 74 1015.2
20260507181142 64 274 0.0 4.0 0.00 0.00 0.00 74 1015.3
20260507181043 64 274 0.0 4.0 0.00 0.00 0.00 73 1015.2
20260507180042 65 287 2.0 5.0 0.00 0.00 0.00 73 1015.2
20260507175044 65 280 1.0 4.0 0.00 0.00 0.00 74 1015.3
20260507174942 65 300 0.0 4.0 0.00 0.00 0.00 74 1015.2
20260507174042 66 273 1.0 4.0 0.00 0.00 0.00 73 1015.3
20260507173841 66 277 2.0 4.0 0.00 0.00 0.00 73 1015.3
20260507173042 66 277 2.0 4.0 0.00 0.00 0.00 73 1015.1
20260507172741 66 273 2.0 4.0 0.00 0.00 0.00 72 1015.0
20260507172043 66 294 3.0 4.0 0.00 0.00 0.00 72 1015.0
20260507171641 66 265 3.0 4.0 0.00 0.00 0.00 71 1014.9
20260507171043 66 262 2.0 3.0 0.00 0.00 0.00 71 1014.9
20260507170541 67 246 2.0 4.0 0.00 0.00 0.00 71 1015.0
20260507170042 67 260 2.0 6.0 0.00 0.00 0.00 71 1014.9
20260507165441 67 250 4.0 5.0 0.00 0.00 0.00 71 1015.0
20260507165043 68 267 2.0 3.0 0.00 0.00 0.00 70 1014.9
20260507164341 68 277 2.0 3.0 0.00 0.00 0.00 69 1014.7
20260507164043 68 277 1.0 3.0 0.00 0.00 0.00 68 1014.8
20260507163241 68 272 0.0 2.0 0.00 0.00 0.00 68 1014.6
20260507163043 68 283 2.0 6.0 0.00 0.00 0.00 67 1014.7
20260507162141 69 279 1.0 4.0 0.00 0.00 0.00 66 1014.6
20260507162043 69 277 1.0 4.0 0.00 0.00 0.00 66 1014.6
20260507161041 69 254 2.0 4.0 0.00 0.00 0.00 65 1014.5
20260507160043 70 267 1.0 4.0 0.00 0.00 0.00 65 1014.6
20260507155941 70 265 2.0 4.0 0.00 0.00 0.00 64 1014.5
20260507155043 70 269 3.0 4.0 0.00 0.00 0.00 64 1014.6
20260507154841 70 275 1.0 4.0 0.00 0.00 0.00 64 1014.6
20260507154044 70 263 3.0 9.0 0.00 0.00 0.00 62 1014.6
20260507153741 70 266 6.0 8.0 0.00 0.00 0.00 63 1014.6
20260507153042 70 248 5.0 9.0 0.00 0.00 0.00 63 1014.5
20260507152641 70 271 6.0 8.0 0.00 0.00 0.00 63 1014.6
20260507152043 70 242 6.0 12.0 0.00 0.00 0.00 63 1014.5
20260507151541 71 262 7.0 12.0 0.00 0.00 0.00 61 1014.5
20260507151042 71 250 9.0 10.0 0.00 0.00 0.00 62 1014.6
20260507150441 71 271 3.0 9.0 0.00 0.00 0.00 62 1014.6
20260507150043 71 240 4.0 9.0 0.00 0.00 0.00 63 1014.5
20260507145341 72 260 3.0 4.0 0.00 0.00 0.00 63 1014.5
20260507145042 72 279 2.0 4.0 0.00 0.00 0.00 65 1014.5
20260507144241 71 246 2.0 4.0 0.00 0.00 0.00 64 1014.5
20260507144042 71 290 2.0 4.0 0.00 0.00 0.00 63 1014.5
20260507143141 72 254 1.0 9.0 0.00 0.00 0.00 64 1014.5
20260507143042 72 240 0.0 9.0 0.00 0.00 0.00 63 1014.5
20260507142041 72 270 3.0 5.0 0.00 0.00 0.00 63 1014.6
20260507141044 72 280 2.0 5.0 0.00 0.00 0.00 64 1014.7
20260507140941 72 271 2.0 5.0 0.00 0.00 0.00 63 1014.7
20260507140042 71 257 3.0 5.0 0.00 0.00 0.00 65 1014.8
20260507135841 71 283 2.0 5.0 0.00 0.00 0.00 65 1014.8
20260507135042 70 269 1.0 7.0 0.00 0.00 0.00 63 1014.8
20260507134741 70 259 3.0 7.0 0.00 0.00 0.00 64 1014.8
20260507134042 70 265 2.0 10.0 0.00 0.00 0.00 65 1014.9
20260507133641 70 256 5.0 10.0 0.00 0.00 0.00 65 1014.9
20260507133042 70 246 7.0 10.0 0.00 0.00 0.00 64 1014.9
20260507132541 70 277 4.0 10.0 0.00 0.00 0.00 65 1014.9
20260507132043 70 277 3.0 9.0 0.00 0.00 0.00 65 1014.9
20260507131441 70 240 5.0 7.0 0.00 0.00 0.00 64 1014.9
20260507131042 70 257 2.0 8.0 0.00 0.00 0.00 64 1014.9
20260507130341 70 249 4.0 8.0 0.00 0.00 0.00 64 1014.9
20260507130042 71 269 4.0 6.0 0.00 0.00 0.00 64 1014.9
20260507125241 71 277 2.0 7.0 0.00 0.00 0.00 61 1014.9
20260507125043 71 271 2.0 7.0 0.00 0.00 0.00 61 1015.0
20260507124141 72 249 3.0 9.0 0.00 0.00 0.00 60 1015.0
20260507124042 72 241 5.0 8.0 0.00 0.00 0.00 59 1015.1
20260507123041 73 243 3.0 9.0 0.00 0.00 0.00 57 1014.9
20260507122044 74 252 7.0 10.0 0.00 0.00 0.00 57 1015.0
20260507121941 74 269 4.0 10.0 0.00 0.00 0.00 57 1015.0
20260507121042 75 252 4.0 8.0 0.00 0.00 0.00 56 1015.1
20260507120841 75 246 4.0 8.0 0.00 0.00 0.00 56 1015.2
20260507120042 75 233 1.0 9.0 0.00 0.00 0.00 55 1015.2
20260507115741 75 253 8.0 9.0 0.00 0.00 0.00 56 1015.2
20260507115042 75 219 4.0 7.0 0.00 0.00 0.00 55 1015.3
20260507114641 75 242 1.0 10.0 0.00 0.00 0.00 53 1015.3
20260507114042 74 311 3.0 10.0 0.00 0.00 0.00 55 1015.4
20260507113541 74 212 1.0 7.0 0.00 0.00 0.00 55 1015.2
20260507113042 74 163 2.0 8.0 0.00 0.00 0.00 55 1015.2
20260507112441 73 218 2.0 8.0 0.00 0.00 0.00 56 1015.2
20260507112043 73 276 2.0 5.0 0.00 0.00 0.00 56 1015.3
20260507111341 72 53 1.0 3.0 0.00 0.00 0.00 58 1015.3
20260507111042 72 227 2.0 3.0 0.00 0.00 0.00 58 1015.3
20260507110241 72 252 1.0 4.0 0.00 0.00 0.00 58 1015.3
20260507110042 71 13 0.0 5.0 0.00 0.00 0.00 59 1015.3
20260507105141 71 266 2.0 8.0 0.00 0.00 0.00 60 1015.4
20260507105044 71 250 5.0 8.0 0.00 0.00 0.00 60 1015.4
20260507104042 70 236 2.0 7.0 0.00 0.00 0.00 60 1015.4
20260507103044 69 252 4.0 10.0 0.00 0.00 0.00 60 1015.5
20260507102942 69 248 4.0 10.0 0.00 0.00 0.00 61 1015.4
20260507102044 68 271 0.0 5.0 0.00 0.00 0.00 66 1015.6
20260507101842 67 203 0.0 5.0 0.00 0.00 0.00 65 1015.6
20260507101043 66 219 1.0 4.0 0.00 0.00 0.00 69 1015.7
20260507100742 66 231 0.0 4.0 0.00 0.00 0.00 68 1015.7
20260507100043 66 150 3.0 4.0 0.00 0.00 0.00 68 1015.8
20260507095642 65 138 3.0 4.0 0.00 0.00 0.00 70 1015.8
20260507095043 65 156 0.0 3.0 0.00 0.00 0.00 70 1015.8
20260507094542 64 207 0.0 3.0 0.00 0.00 0.00 71 1016.0
20260507094043 64 246 0.0 2.0 0.00 0.00 0.00 70 1016.0
20260507093442 64 146 2.0 3.0 0.00 0.00 0.00 71 1016.0
20260507093044 64 153 1.0 3.0 0.00 0.00 0.00 70 1016.0
20260507092342 64 225 1.0 3.0 0.00 0.00 0.00 71 1015.8
20260507092044 64 236 0.0 2.0 0.00 0.00 0.00 70 1015.8
20260507091242 64 232 0.0 3.0 0.00 0.00 0.00 72 1015.8
20260507091043 64 232 0.0 3.0 0.00 0.00 0.00 71 1015.8
20260507090142 64 146 0.0 3.0 0.00 0.00 0.00 72 1015.8
20260507090043 64 146 0.0 3.0 0.00 0.00 0.00 71 1015.8
20260507085042 64 211 0.0 3.0 0.00 0.00 0.00 69 1015.7
20260507084044 64 212 0.0 4.0 0.00 0.00 0.00 70 1015.6
20260507084007 64 206 0.0 4.0 0.00 0.00 0.00 69 1015.6
20260507083043 64 209 0.0 5.0 0.00 0.00 0.00 71 1015.6
20260507082044 63 235 1.0 4.0 0.00 0.00 0.00 73 1015.7
20260507081742 63 245 2.0 4.0 0.00 0.00 0.00 72 1015.7
20260507081042 63 200 1.0 6.0 0.00 0.00 0.00 72 1015.7
20260507080642 63 223 3.0 6.0 0.00 0.00 0.00 72 1015.7
20260507080042 63 243 3.0 5.0 0.00 0.00 0.00 72 1015.7
20260507075541 63 209 5.0 5.0 0.00 0.00 0.00 72 1015.7
20260507075044 63 233 2.0 4.0 0.00 0.00 0.00 71 1015.8
20260507074441 63 244 0.0 4.0 0.00 0.00 0.00 72 1015.7
20260507073341 63 227 2.0 6.0 0.00 0.00 0.00 73 1015.6
20260507072241 62 236 3.0 4.0 0.00 0.00 0.00 75 1015.6
20260507072044 62 171 1.0 5.0 0.00 0.00 0.00 76 1015.6
20260507071141 62 215 2.0 5.0 0.00 0.00 0.00 76 1015.6
20260507071044 62 254 5.0 5.0 0.00 0.00 0.00 76 1015.6
20260507070041 61 224 2.0 6.0 0.00 0.00 0.00 77 1015.6
20260507064941 61 238 6.0 7.0 0.00 0.00 0.00 76 1015.7
20260507063842 61 212 1.0 7.0 0.00 0.00 0.00 76 1015.7
20260507062741 61 198 1.0 8.0 0.00 0.00 0.00 76 1015.4
20260507061641 61 217 3.0 9.0 0.00 0.00 0.00 76 1015.4
20260507060541 62 211 5.0 6.0 0.00 0.00 0.00 75 1015.5
20260507055441 62 190 0.0 4.0 0.00 0.00 0.00 75 1015.5
20260507054341 62 227 0.0 8.0 0.00 0.00 0.00 75 1015.5
20260507053241 62 215 0.0 6.0 0.00 0.00 0.00 75 1015.5
20260507052141 62 153 2.0 4.0 0.00 0.00 0.00 77 1015.3
20260507051041 61 152 1.0 4.0 0.00 0.00 0.00 76 1015.2
20260507045941 61 155 2.0 5.0 0.00 0.00 0.00 75 1015.1
20260507044841 60 170 0.0 1.0 0.00 0.00 0.00 76 1015.0
20260507043741 61 213 0.0 2.0 0.00 0.00 0.00 77 1015.1
20260507042641 61 267 2.0 4.0 0.00 0.00 0.00 75 1015.0
20260507041541 61 224 2.0 3.0 0.00 0.00 0.00 75 1014.8
20260507040441 61 232 3.0 5.0 0.00 0.00 0.00 75 1014.7
20260507035341 61 232 1.0 4.0 0.00 0.00 0.00 76 1014.6
20260507035043 61 138 0.0 2.0 0.00 0.00 0.00 76 1014.5
20260507034241 61 138 1.0 4.0 0.00 0.00 0.00 76 1014.4
20260507033141 61 156 0.0 3.0 0.00 0.00 0.00 78 1014.3
20260507032041 61 223 0.0 1.0 0.00 0.00 0.00 79 1014.3
20260507031046 61 223 0.0 1.0 0.00 0.00 0.00 79 1014.2
20260507030941 61 223 0.0 1.0 0.00 0.00 0.00 79 1014.2
20260507025841 61 223 0.0 1.0 0.00 0.00 0.00 79 1014.1
20260507024741 61 223 0.0 3.0 0.00 0.00 0.00 79 1014.0
20260507023641 61 229 1.0 2.0 0.00 0.00 0.00 79 1014.0
20260507022541 61 240 0.0 0.0 0.00 0.00 0.00 79 1013.9
20260507022042 61 240 0.0 1.0 0.00 0.00 0.00 79 1013.7
20260507021441 61 240 0.0 3.0 0.00 0.00 0.00 79 1013.7
20260507021042 62 240 1.0 4.0 0.00 0.00 0.00 79 1013.7
20260507020341 62 249 2.0 4.0 0.00 0.00 0.00 79 1013.8
20260507020042 62 245 2.0 4.0 0.00 0.00 0.00 79 1013.7
20260507015241 62 260 2.0 3.0 0.00 0.00 0.00 79 1013.6
20260507015042 61 242 2.0 2.0 0.00 0.00 0.00 79 1013.6
20260507014141 61 281 0.0 2.0 0.00 0.00 0.00 78 1013.5
20260507014042 61 281 0.0 2.0 0.00 0.00 0.00 78 1013.5
20260507013053 61 286 1.0 2.0 0.00 0.00 0.00 78 1013.5
20260507012040 61 290 1.0 3.0 0.00 0.00 0.00 78 1013.3
20260507011042 61 296 0.0 1.0 0.00 0.00 0.00 77 1013.2
20260507010940 61 296 0.0 1.0 0.00 0.00 0.00 77 1013.4
20260507010041 62 296 0.0 1.0 0.00 0.00 0.00 76 1013.3
20260507005840 62 289 1.0 1.0 0.00 0.00 0.00 76 1013.2
20260507005041 62 252 0.0 3.0 0.00 0.00 0.00 75 1013.2
20260507004740 62 252 0.0 3.0 0.00 0.00 0.00 75 1013.2
20260507004041 62 275 2.0 2.0 0.00 0.00 0.00 74 1013.2
20260507003640 63 300 1.0 2.0 0.00 0.00 0.00 73 1013.2
20260507003043 63 285 0.0 2.0 0.00 0.00 0.00 73 1013.2
20260507002541 63 294 0.0 2.0 0.00 0.00 0.00 72 1013.3
20260507002042 63 294 1.0 4.0 0.00 0.00 0.00 71 1013.2
20260507001441 64 286 0.0 4.0 0.00 0.00 0.00 71 1013.1
20260507001042 64 267 1.0 3.0 0.00 0.00 0.00 70 1013.3
20260507000343 64 289 2.0 4.0 0.00 0.00 0.00 69 1013.3
20260507000043 64 261 2.0 4.0 0.00 0.00 0.00 69 1013.4
20260506235241 65 259 1.0 5.0 0.00 0.00 0.00 68 1013.2
20260506235042 65 297 3.0 5.0 0.00 0.00 0.00 67 1013.2
20260506234141 66 253 3.0 5.0 0.00 0.00 0.00 66 1013.1
20260506234042 65 243 4.0 5.0 0.00 0.00 0.00 66 1013.2
20260506233041 66 256 5.0 9.0 0.00 0.00 0.00 66 1013.2
20260506232045 66 255 4.0 8.0 0.00 0.00 0.00 65 1013.2
20260506231941 66 253 5.0 7.0 0.00 0.00 0.00 65 1013.2
20260506231042 66 296 5.0 9.0 0.00 0.00 0.00 64 1013.2
20260506230841 66 288 4.0 9.0 0.00 0.00 0.00 63 1013.1
20260506230042 66 305 4.0 7.0 0.00 0.00 0.00 62 1013.0
20260506225741 66 252 2.0 7.0 0.00 0.00 0.00 62 1013.0
20260506225043 67 266 3.0 9.0 0.00 0.00 0.00 61 1013.0
20260506224641 67 265 4.0 9.0 0.00 0.00 0.00 61 1012.9
20260506224043 67 252 3.0 10.0 0.00 0.00 0.00 61 1012.8
20260506223541 67 259 6.0 10.0 0.00 0.00 0.00 61 1012.7
20260506223042 67 261 6.0 8.0 0.00 0.00 0.00 60 1012.4
20260506222441 67 242 3.0 7.0 0.00 0.00 0.00 60 1012.4
20260506222051 67 225 4.0 7.0 0.00 0.00 0.00 60 1012.4
20260506221340 67 213 4.0 5.0 0.00 0.00 0.00 61 1012.3
20260506221042 67 210 2.0 4.0 0.00 0.00 0.00 60 1012.3
20260506220241 67 212 2.0 5.0 0.00 0.00 0.00 60 1012.3
20260506220041 67 209 3.0 5.0 0.00 0.00 0.00 60 1012.3
20260506215141 67 221 3.0 5.0 0.00 0.00 0.00 60 1012.2
20260506215044 67 233 4.0 5.0 0.00 0.00 0.00 60 1012.2
20260506214040 67 234 4.0 4.0 0.00 0.00 0.00 59 1012.1
20260506213042 68 267 2.0 4.0 0.00 0.00 0.00 59 1012.1
20260506212940 68 253 2.0 4.0 0.00 0.00 0.00 59 1012.1
20260506212042 68 230 3.0 5.0 0.00 0.00 0.00 59 1012.0
20260506211840 68 232 4.0 5.0 0.00 0.00 0.00 59 1012.1
20260506211042 68 225 2.0 5.0 0.00 0.00 0.00 58 1012.0
20260506210740 68 221 3.0 5.0 0.00 0.00 0.00 58 1012.0
20260506210042 68 259 2.0 5.0 0.00 0.00 0.00 57 1012.0
20260506205640 68 245 3.0 5.0 0.00 0.00 0.00 57 1012.0
20260506205049 69 241 2.0 4.0 0.00 0.00 0.00 57 1011.9
20260506204540 69 217 2.0 4.0 0.00 0.00 0.00 57 1011.8
20260506204041 69 203 0.0 4.0 0.00 0.00 0.00 57 1011.8
20260506203440 69 193 0.0 4.0 0.00 0.00 0.00 57 1011.7
20260506203042 69 216 1.0 4.0 0.00 0.00 0.00 57 1011.7
20260506202340 69 196 0.0 3.0 0.00 0.00 0.00 57 1011.7
20260506202042 69 196 0.0 3.0 0.00 0.00 0.00 57 1011.6
20260506201240 69 180 0.0 5.0 0.00 0.00 0.00 57 1011.7
20260506201041 69 158 0.0 5.0 0.00 0.00 0.00 57 1011.7
20260506200140 69 133 2.0 8.0 0.00 0.00 0.00 57 1011.5
20260506200041 69 161 4.0 8.0 0.00 0.00 0.00 57 1011.5